TimeEDT,TemperatureF,Dew PointF,Humidity,Sea Level PressureIn,VisibilityMPH,Wind Direction,Wind SpeedMPH,Gust SpeedMPH,PrecipitationIn,Events,Conditions,WindDirDegrees,DateUTC
12:53 AM,50.0,46.0,86,30.28,10.0,ESE,5.8,-,N/A,,Clear,110,2013-09-06 04:53:00
1:53 AM,50.0,45.0,83,30.28,10.0,SE,3.5,-,N/A,,Clear,140,2013-09-06 05:53:00
2:53 AM,50.0,45.0,83,30.28,10.0,SSE,5.8,-,N/A,,Clear,150,2013-09-06 06:53:00
3:53 AM,48.9,44.1,83,30.27,10.0,Calm,Calm,-,N/A,,Clear,0,2013-09-06 07:53:00
4:53 AM,50.0,46.0,86,30.27,10.0,SSW,3.5,-,N/A,,Clear,200,2013-09-06 08:53:00
5:53 AM,48.9,45.0,86,30.28,10.0,South,5.8,-,N/A,,Clear,190,2013-09-06 09:53:00
6:53 AM,48.0,45.0,89,30.28,10.0,South,4.6,-,N/A,,Clear,190,2013-09-06 10:53:00
7:53 AM,50.0,46.9,89,30.30,10.0,Calm,Calm,-,N/A,,Clear,0,2013-09-06 11:53:00
8:53 AM,54.0,48.9,83,30.29,10.0,SSW,8.1,-,N/A,,Clear,210,2013-09-06 12:53:00
9:53 AM,57.0,50.0,77,30.29,10.0,SW,10.4,-,N/A,,Clear,220,2013-09-06 13:53:00
11:53 AM,66.9,52.0,59,30.25,10.0,SW,9.2,-,N/A,,Clear,230,2013-09-06 15:53:00
12:53 PM,69.1,51.1,53,30.23,10.0,SW,6.9,-,N/A,,Clear,220,2013-09-06 16:53:00
1:53 PM,72.0,52.0,49,30.21,10.0,SW,9.2,-,N/A,,Clear,220,2013-09-06 17:53:00
2:53 PM,73.9,51.1,45,30.17,10.0,SSW,12.7,-,N/A,,Clear,210,2013-09-06 18:53:00
3:53 PM,73.9,51.1,45,30.16,10.0,South,9.2,-,N/A,,Clear,190,2013-09-06 19:53:00
4:53 PM,75.0,52.0,44,30.14,10.0,SSW,9.2,-,N/A,,Clear,200,2013-09-06 20:53:00
5:53 PM,75.0,51.1,43,30.13,10.0,SSW,9.2,-,N/A,,Clear,210,2013-09-06 21:53:00
6:53 PM,73.0,54.0,51,30.12,10.0,South,6.9,-,N/A,,Clear,190,2013-09-06 22:53:00
7:53 PM,71.1,54.0,55,30.09,10.0,South,6.9,-,N/A,,Clear,180,2013-09-06 23:53:00
8:53 PM,68.0,54.0,61,30.09,10.0,South,5.8,-,N/A,,Clear,180,2013-09-07 00:53:00
9:53 PM,64.9,55.0,70,30.07,10.0,SSW,8.1,-,N/A,,Clear,200,2013-09-07 01:53:00
10:53 PM,64.9,54.0,68,30.05,10.0,SSW,8.1,-,N/A,,Clear,200,2013-09-07 02:53:00
11:53 PM,64.9,54.0,68,30.05,10.0,SSW,6.9,-,N/A,,Clear,200,2013-09-07 03:53:00